Location: Caltech
(34.1382°N, 118.1253°W)
Time: 20:05:01
(UTC-07:00)

ASTRO E2 - Visible Passes

Search period start: 28 August 2015 00:00
Search period end: 07 September 2015 00:00
Orbit: 523 x 530 km, 31.4° (Epoch: 28 August)

Date Brightness Start Highest point End Pass type
(mag) Time Alt. Az. Time Alt. Az. Time Alt. Az.
28 Aug 5.2 21:11:21 10° SSW 21:11:38 11° SSW 21:11:38 11° SSW visible
29 Aug 4.4 20:56:39 10° SSW 20:58:37 20° S 20:58:37 20° S visible
30 Aug 3.8 20:41:59 10° SW 20:45:26 27° SSE 20:45:26 27° SSE visible
31 Aug 3.6 20:27:23 10° SW 20:31:00 31° SSE 20:32:07 27° SE visible
01 Sep 3.5 20:12:49 10° SW 20:16:32 35° SSE 20:18:40 21° ESE visible
01 Sep 5.4 21:53:03 10° WSW 21:53:47 15° WSW 21:53:47 15° WSW visible
02 Sep 3.4 19:58:16 10° SW 20:02:05 40° SSE 20:05:08 15° E visible
02 Sep 4.8 21:38:37 10° W 21:40:13 22° WSW 21:40:13 22° WSW visible
03 Sep 3.3 19:43:45 10° WSW 19:47:37 44° SSE 19:51:31 10° E visible
03 Sep 4.1 21:24:11 10° W 21:26:36 33° WSW 21:26:36 33° WSW visible
04 Sep 3.4 21:09:45 10° W 21:12:54 46° SW 21:12:54 46° SW visible
05 Sep 3.0 20:55:19 10° W 20:59:11 54° SSW 20:59:11 54° SSW visible
06 Sep 3.0 20:40:53 10° W 20:44:50 51° S 20:45:26 46° SSE visible
